Regional Weather Roundup
Issued by NWS

Home | Current Version | Previous Version | Text Only | Print | Product List | Glossary Off
Versions: 1 2 3 4 5 6 7 8 9 10 11 12 13 14 15 16 17 18 19 20 21 22 23 24 25 26 27 28 29 30 31 32 33 34 35 36 37 38 39 40 41 42 43 44 45 46 47 48 49 50

000
ASUS43 KOAX 241310
RWRNE

WEATHER ROUNDUP FOR NEBRASKA
NATIONAL WEATHER SERVICE OMAHA NE
800 AM CDT THU JUL 24 2014

NOTES: SATELLITE DATA IS BEING USED TO AUGMENT CLOUD COVER ABOVE
       12000 FEET.
       "FAIR" INDICATES FEW OR NO CLOUDS BELOW 12,000 FEET WITH NO
       SIGNIFICANT WEATHER AND/OR OBSTRUCTIONS TO VISIBILITY.

  * THESE STATIONS DO NOT REPORT WEATHER SUCH AS RAIN...SNOW OR FOG.

NEZ001>004-019>022-054>056-241400-
NEBRASKA PANHANDLE

CITY           SKY/WX    TMP DP  RH WIND       PRES   REMARKS
SCOTTSBLUFF    SUNNY     69  65  86 SE10      30.00S
ALLIANCE       SUNNY     67  64  90 S15       29.99F
CHADRON        SUNNY     74  64  71 S6        29.91F
KIMBALL        MOSUNNY   66  62  88 S8        30.06F
SIDNEY         SUNNY     70  63  78 S7        30.06F
$$

NEZ057>060-069>072-079>082-241400-
SOUTHWEST NEBRASKA

CITY           SKY/WX    TMP DP  RH WIND       PRES   REMARKS
NORTH PLATTE   SUNNY     70  63  78 SE9       30.02F
IMPERIAL       SUNNY     69  66  90 SE8       30.04S FOG
LEXINGTON      SUNNY     68  63  84 SE12      30.05F
MCCOOK         SUNNY     68  64  87 SE8       30.04F
OGALLALA       MOSUNNY   65  63  92 CALM      30.03S
$$

NEZ005>010-023>029-035>040-094-241400-
NORTH CENTRAL NEBRASKA

CITY           SKY/WX    TMP DP  RH WIND       PRES   REMARKS
VALENTINE      SUNNY     69  60  73 S13       29.97F
AINSWORTH      SUNNY     67  59  77 S20       29.99F
BROKEN BOW     SUNNY     67  62  84 SE10      30.04F
O`NEILL        MOSUNNY   66  59  77 SE10      30.05F
ORD            MOSUNNY   66  61  84 SE10      30.05F
THEDFORD       SUNNY     70  62  77 S14G20    30.01F
$$

NEZ041-046>049-061>064-073>077-083>087-241400-
SOUTH CENTRAL NEBRASKA

CITY           SKY/WX    TMP DP  RH WIND       PRES   REMARKS
GRAND ISLAND   CLOUDY    68  62  81 S13       30.10S
AURORA         MOSUNNY   66  64  94 SE10G16   30.10S
HASTINGS       SUNNY     68  60  75 SE10G20   30.09F
HEBRON         SUNNY     67  62  81 SE9       30.12S
HOLDREGE       SUNNY     68  63  83 SE15      30.07F
KEARNEY *      SUNNY     66  63  88 S13       30.08F
YORK           SUNNY     66  63  88 SE10      30.11F
$$

NEZ011>018-030>034-042>045-241400-
NORTHEAST NEBRASKA

CITY           SKY/WX    TMP DP  RH WIND       PRES   REMARKS
NORFOLK        PTSUNNY   67  60  78 SE12      30.11R
ALBION         MOSUNNY   64  60  87 SE7       30.09F
BLAIR          SUNNY     68  59  72 SE7       30.13R
COLUMBUS *     SUNNY     66  59  77 SE9       30.12R
FREMONT        MOSUNNY   71  60  70 SE7       30.14R
TEKAMAH        MOSUNNY   65  61  87 SE5       30.13R
WAYNE          MOSUNNY   66  62  85 S7        30.12S
$$

NEZ050>053-065>068-078-088>093-241400-
SOUTHEAST NEBRASKA

CITY           SKY/WX    TMP DP  RH WIND       PRES   REMARKS
LINCOLN        SUNNY     70  60  70 S12       30.13S
OMAHA EPPLEY   PTSUNNY   70  58  65 SE10      30.13S
BEATRICE       SUNNY     67  61  82 SE9       30.14R
FALLS CITY     SUNNY     66  62  87 SE5       30.14R
NEBRASKA CITY  SUNNY     66  60  80 SE7       30.14S
PLATTSMOUTH    SUNNY     67  60  76 SE7       30.14S
$$

NEZ044-045-051>053-067-241400-
OMAHA AREA

CITY           SKY/WX    TMP DP  RH WIND       PRES   REMARKS
OMAHA EPPLEY   PTSUNNY   70  58  65 SE10      30.13S
BLAIR          SUNNY     68  59  72 SE7       30.13R
FREMONT        MOSUNNY   71  60  70 SE7       30.14R
MILLARD        SUNNY     69  61  74 SE6       30.13R
OFFUTT AFB     SUNNY     67  64  89 SE7       30.13S
PLATTSMOUTH    SUNNY     67  60  76 SE7       30.14S
WAHOO          FAIR      66  61  84 SE3       30.13R
$$



USA.gov is the U.S. government's official web portal to all federal, state and local government web resources and services.